Location: Stara Lesna
(49.1528°N, 20.2911°E)
Time: 11:32:06
(UTC+02:00)

Meteor 1-25 Rocket - Pass Details

Date: 21 September 2019
Orbit: 836 x 892 km, 81.2° (Epoch: 19 October)

Event Time Altitude Azimuth Distance (km) Brightness Sun altitude
Rises 03:19:58 0° 346° (NNW) 3,470 7.7 -28.3°
Reaches altitude 10° 03:22:26 10° 344° (NNW) 2,519 6.9 -28.0°
Enters shadow 03:27:16 60° 312° (NW) 979 4.4 -27.4°
